Back to catalog

SL-8 R/B

AliveLEO
NORAD 6271·ROCKET BODY·🇷🇺 Russia

Launched Nov 1, 1972 from Plesetsk Cosmodrome

Loading…

Next Passes (next 24 hours)

TLE

FreshSource: Space-Track

Epoch: Sep 14, 2026, 11:15 UTC

1 06271U 72087J   26257.46892771 -.00000086  00000-0 -56355-3 0  9999
2 06271  74.0377 259.0217 0080602 321.9817 206.3834 12.34558293427628

Track SL-8 R/B in real time with AllMySat

Download on the App Store